Location: Santa Teresa Spring
(37.2333°N, 121.7000°W)
Time: 07:37:33
(UTC-08:00)

ISS - Visible Passes

Search period start: 06 February 2016 00:00
Search period end: 16 February 2016 00:00
Orbit: 399 x 408 km, 51.6° (Epoch: 06 February)

Date Brightness Start Highest point End Pass type
(mag) Time Alt. Az. Time Alt. Az. Time Alt. Az.
07 Feb -0.7 18:11:14 10° NW 18:12:57 14° NNW 18:14:41 10° N visible
13 Feb -0.6 19:24:20 10° N 19:24:35 11° N 19:24:35 11° N visible
15 Feb -1.5 19:14:47 10° NNW 19:16:35 20° N 19:16:35 20° N visible
